Regional Weather Roundup
Issued by NWS Sioux Falls, SD

Home | Current Version | Previous Version | Graphics & Text | Print | Product List | Glossary On
Versions: 1 2 3 4 5 6 7 8 9 10 11 12 13 14 15 16 17 18 19 20 21 22 23 24 25 26 27 28 29 30 31 32 33 34 35 36 37 38 39 40 41 42 43 44 45 46 47 48 49 50
000
ASUS43 KFSD 241410
RWRFSD

WEATHER ROUNDUP FOR SE SOUTH DAKOTA/SW MINNESOTA/NW IOWA
NATIONAL WEATHER SERVICE SIOUX FALLS SD
900 AM CDT SAT JUN 24 2017

NOTE: "FAIR" INDICATES FEW OR NO CLOUDS BELOW 12,000 FEET WITH NO
SIGNIFICANT WEATHER AND OR OBSTRUCTIONS TO VISIBILITY.


SDZ038>040-050-052>070-241500-
SOUTHEAST SOUTH DAKOTA

CITY           SKY/WX    TMP DP  RH WIND       PRES   REMARKS
BROOKINGS      PTSUNNY   56  44  64 W8        30.10S
CHAMBERLAIN    SUNNY     59  40  50 W10       30.17S
HURON          PTSUNNY   63  43  48 W16       30.10F
MADISON        FAIR      57  43  58 SW16G22   30.11S
MITCHELL       SUNNY     63  41  44 W13G21    30.13F
SIOUX FALLS    MOSUNNY   62  44  51 W10       30.12R
WINNER         FAIR      65  34  31 NW16      30.19R
YANKTON        SUNNY     62  41  46 W10       30.16R
$$

MNZ071-072-080-081-089-090-097-098-241500-
SOUTHWEST MINNESOTA

CITY           SKY/WX    TMP DP  RH WIND       PRES   REMARKS
FAIRMONT       SUNNY     59  42  53 W13       30.10R
JACKSON        SUNNY     59  41  51 W12       30.10S
LUVERNE        SUNNY     59  41  51 W8        30.12S
MARSHALL       PTSUNNY   58  44  60 W9        30.09R
MONTEVIDEO     MOSUNNY   57  43  58 N13       30.07S
PIPESTONE      MOSUNNY   59  43  55 W9        30.10S
REDWOOD FALLS  SUNNY     60  42  51 NW10      30.07R
TRACY          PTSUNNY   60  43  54 W7        30.09S
WINDOM         SUNNY     61  41  48 W10       30.10R
WORTHINGTON    SUNNY     59  44  57 W10       30.12R
$$

IAZ001>003-012>014-020>022-031-032-NEZ013-014-SDZ071-241500-
NORTHWEST IOWA

CITY           SKY/WX    TMP DP  RH WIND       PRES   REMARKS
DENISON        SUNNY     63  45  51 NW7       30.17S
ESTHERVILLE    SUNNY     60  42  51 NW10      30.10R
LE MARS        MOSUNNY   63  46  55 W6        30.16S
SHELDON        SUNNY     61  43  51 W8        30.12S
SIOUX CITY     SUNNY     62  46  55 NW3       30.16S
SPENCER        SUNNY     61  45  55 W8        30.13R
STORM LAKE     SUNNY     59  45  58 W7        30.15R
$$

ABBREVIATIONS USED IN REMARKS
   TC - TEMPERATURE IN CELSIUS
  WCI - WIND CHILL INDEX
   HX - HEAT INDEX
  VSB - VISIBILITY




USA.gov is the U.S. government's official web portal to all federal, state and local government web resources and services.